STARLINK-37216, 68391

Orbit data source: Space-Track

STARLINK-37216, 68391 is a payload satellite owned by SpaceX/Seattle (US) in SSO that was launched on Thu, 26 Mar 2026 UTC via an FALCON 9 launch vehicle from the Air Force Western Test Range (AFWTR). Payload-class satellites include a variety of spacecraft equipped with specific instruments for various scientific and technological missions. These include communications satellites like Starlink; space stations such as the ISS; scientific satellites like the Hubble; Earth observation satellites from companies like Planet Labs, Umbra, and HawkEye 360; GPS; miniature CubeSats for education and research; and military/defense satellites.

Loading next visibility...
Identifier
68391, 2026-063M
Orbit
SSO
Country
Flag of USUS
Related business
Manufacturer
SpaceX/Seattle
Mission
Operational spacecraft
Bus & Motor
STARLINK V2MO, Unknown motor
Mass
575 kg wet, ~530 kg dry
Launch date (UTC)
2026-03-26 (3 months ago)
Launch vehicle
FALCON 9
Launch site
Air Force Western Test Range (AFWTR)
Object type
Payload
Rocket body
Debris
Shape & HBR
Unknown shape, 17.7 m
Radar Cross Section
Large (>1 m²)

Expand to show TLE details & history
Last TLE update: 9 hours ago

TLE from 9 hours ago
0 STARLINK-37216
1 68391U 26063M   26165.92108781  .00011925  00000-0  37122-3 0  9996
2 68391  97.2858 308.1538 0001312  97.1530 262.9862 15.33436015 12793
Epoch: 2026-06-14T22:06Z
TLE epoch observation values (Epoch: 2026-06-14T22:06:21.986Z)
Latitude
-0.00004°
Longitude
73.3473°
Altitude
468.792 km
Speed
7.632 km/s
True Right ascension
20h 32m 36s
True Declination
0° 00' 00"
Sunlit
Object was in full shadow at epoch
Visualization orbit readout
Latitude
Unknown
Longitude
Unknown
Altitude
Unknown
Speed
Unknown
Apparent Right ascension
Unknown
Apparent Declination
Unknown
Sunlit
N/A
Visualization observer readout
Local Sidereal Time
17:13:28
Azimuth
Unknown
Elevation
Unknown
Doppler factor
Unknown
Orbital elements
Apogee altitude
463.41 km
Perigee altitude
461.615 km
Semi-major axis
6,840.65 km
Eccentricity
0.00013
Inclination
97.2858°
RAAN
308.1538°
Arg. of periapsis
97.153°
True anomaly
262.97128°
Mean anomaly
262.9862°
Eccentric anomaly
262.97874°
Mean motion
3.83616 °/min
Orbital period
93.84 mins
BSTAR
0.00037122
Loading maneuver chart data...
Computing Atmospheric mass density...
Loading historical data...
Loading historical data...
Loading historical data...
Loading historical data...
Loading historical data...
Loading historical data...
Loading historical data...

Documentation

Showing up to 5 results
|